User: anonymous   Login
Location: Unspecified
(0.0000°N, 0.0000°E)
Time: 23:53:08
(UTC+00:00)
Language:

Mayak - Orbit

View from above orbital plane
View from above orbital plane
View from above satellite
View from above satellite

Ground track
Ground track

The orbit data is extracted from the following two-line orbital elements,

1 42830U 17042F   19177.70890782  .00000513  00000-0  56122-4 0  9996
2 42830  97.5675  70.9189 0015391  34.5637 325.6580 14.91800250106162
Epoch (UTC): 26 June 2019 17:00:49
Eccentricity: 0.0015391
inclination: 97.5675°
perigee height: 581 km
apogee height: 603 km
right ascension of ascending node: 70.9189°
argument of perigee: 34.5637°
revolutions per day: 14.91800250
mean anomaly at epoch: 325.6580°
orbit number at epoch: 10616

The dashed part of the orbit path shows where the satellite is in the earth's shadow,  

DLR